GFSMW_700_spd_057.txt.gz
Wind_Speed
33 29 37 34 31 27 23 24 24 29 24 24 24 17 18 14 14 12 10 9 11 6 9 6 10 8 6 12 14 13 14 12 12 8 11 12 16 13 14 14 10 14 15
36 35 38 36 35 27 23 23 24 26 24 22 21 19 17 16 12 10 9 8 10 8 7 7 8 10 6 8 11 14 14 17 12 9 14 7 11 10 10 11 10 13 14
37 40 42 40 37 30 26 25 25 26 25 25 22 21 24 20 17 14 11 7 8 5 7 7 9 7 7 7 10 10 8 13 11 7 10 7 8 15 19 19 12 8 12
30 37 42 44 38 30 26 26 25 26 25 26 24 21 19 19 16 12 11 10 7 5 8 5 7 6 7 9 7 12 11 10 8 12 13 12 11 13 16 17 15 12 12
36 34 35 40 35 28 26 28 25 28 27 26 23 20 17 16 17 18 13 10 9 7 6 7 7 6 9 8 9 8 8 10 14 15 13 12 18 14 9 13 15 14 16
47 29 36 34 36 29 25 28 27 29 30 27 25 23 19 16 16 17 14 16 12 9 8 5 5 8 8 7 8 10 10 9 14 16 17 23 14 17 10 9 15 17 17
47 36 39 37 36 34 27 27 27 28 31 30 28 25 22 19 15 15 13 14 12 10 10 9 6 6 8 7 7 9 9 8 8 14 15 18 17 19 15 10 20 18 17
47 42 32 29 35 30 25 27 27 26 29 30 28 27 26 23 19 17 12 13 13 13 13 13 10 7 8 7 7 7 8 8 8 9 7 14 7 12 19 18 16 17 16
46 40 41 30 30 32 23 23 27 26 26 28 27 27 27 26 23 19 15 13 10 13 16 15 12 10 9 9 8 9 8 7 7 6 7 8 8 14 16 14 13 12 13
43 36 37 43 35 32 26 25 27 30 25 26 27 26 27 26 23 22 19 16 12 13 11 14 14 12 10 10 10 10 10 9 8 8 7 8 10 11 14 14 10 9 7
42 22 36 40 42 36 35 27 23 31 33 29 28 28 28 29 28 25 23 20 18 18 14 10 10 11 10 10 10 11 12 12 11 9 9 8 10 12 11 10 10 9 7
35 23 14 44 44 42 38 35 29 26 32 32 30 29 28 28 31 29 25 23 21 21 18 14 12 11 11 11 12 13 12 13 13 11 11 11 10 9 10 10 9 8 7
36 29 13 6 26 37 39 35 37 29 29 34 34 32 31 30 31 31 28 26 24 23 22 18 14 15 14 13 13 13 14 14 14 14 13 12 13 12 11 10 9 9 9
36 24 18 8 18 35 45 36 35 36 27 32 33 32 30 30 30 31 31 30 28 26 24 22 19 16 16 15 15 14 14 13 15 16 16 17 15 14 14 14 13 12 12
17 27 32 20 20 33 47 35 34 35 34 30 30 25 30 29 30 31 31 31 31 28 26 24 22 22 20 19 18 16 15 14 14 15 17 18 19 20 20 19 17 17 16
14 9 13 21 31 30 27 45 34 39 37 32 29 25 22 29 30 29 30 31 29 30 30 28 27 25 24 21 20 19 17 17 17 15 15 17 20 21 21 21 19 19 18
13 11 3 3 17 39 27 38 27 36 32 34 31 29 26 23 29 28 28 28 30 29 31 31 29 28 25 24 23 22 21 19 18 18 17 16 17 19 21 22 21 20 19
10 3 5 9 11 36 41 45 46 51 32 26 30 30 32 27 24 28 30 29 28 30 30 30 31 30 28 25 25 24 24 23 22 21 20 19 18 18 19 19 20 18 18
21 15 9 9 3 13 15 39 54 53 40 32 28 29 30 30 25 23 22 27 29 29 30 29 30 31 29 28 26 26 27 26 25 23 22 22 21 20 21 20 19 18 17
28 29 21 14 9 6 7 15 33 39 38 20 22 26 30 32 29 25 25 22 21 24 28 29 29 29 29 28 27 27 28 27 26 26 25 24 22 22 22 23 21 18 15
44 39 25 18 11 9 14 21 9 34 26 24 20 24 28 29 27 28 29 27 24 23 22 26 29 29 30 30 29 28 29 29 27 28 26 25 24 23 23 24 25 22 21
39 54 34 22 10 15 16 16 17 20 28 31 30 33 28 32 34 32 31 32 31 29 27 26 26 29 30 30 30 30 31 29 31 29 27 27 26 26 26 26 25 24 24
45 51 50 36 31 18 18 23 29 28 32 35 36 36 33 30 36 37 35 34 35 33 31 31 31 28 29 29 29 29 30 30 32 32 30 30 29 29 29 29 28 26 25
54 45 37 45 38 25 22 19 27 34 37 43 44 42 39 32 34 39 40 38 36 37 35 32 31 33 33 32 31 31 30 30 32 33 34 32 31 32 31 29 26 25 24
50 47 43 47 52 41 31 27 23 33 37 37 43 41 38 36 32 35 39 41 39 38 36 30 27 28 28 31 29 29 29 29 32 32 34 35 35 33 32 31 28 26 27
46 41 44 46 51 55 38 33 32 31 35 39 37 44 44 41 38 36 34 38 40 40 39 31 30 31 29 26 26 30 29 28 29 31 33 33 33 34 33 33 31 30 29

GFSMW_700_spd_060.txt.gz
Wind_Speed
35 34 33 29 31 23 22 17 18 25 21 24 20 17 16 14 12 14 11 8 6 6 8 7 9 8 12 13 12 11 14 13 11 11 17 14 9 13 13 15 14 14 15
35 37 39 27 35 28 24 22 21 26 22 24 23 13 16 12 16 12 11 11 8 6 7 8 7 9 11 10 11 14 11 12 12 13 14 11 9 16 15 15 16 16 16
33 35 38 34 33 33 26 22 21 23 22 24 24 21 22 21 15 16 14 11 11 8 6 8 7 7 10 9 14 14 14 11 10 6 7 10 16 17 17 17 19 17 17
34 33 39 30 37 38 31 22 20 22 24 25 26 24 23 19 15 13 12 12 10 10 7 8 8 8 8 10 11 11 10 12 12 14 11 14 14 14 15 17 20 18 19
29 37 39 37 36 35 33 24 22 23 28 27 26 23 22 22 20 17 16 12 12 12 9 8 8 8 8 10 10 12 11 11 16 15 15 16 10 12 15 18 19 22 22
29 30 31 30 40 39 34 29 25 26 29 29 26 23 20 20 21 21 17 15 13 11 12 9 8 8 8 9 8 11 10 12 16 16 18 19 13 14 12 17 20 22 20
36 32 42 32 32 32 28 28 26 27 29 29 28 26 23 22 21 19 16 17 15 12 12 12 11 9 9 9 7 9 10 12 16 15 23 21 16 14 16 18 19 22 21
36 31 27 27 24 26 22 23 27 29 30 32 29 27 26 24 22 19 16 16 16 15 14 13 14 12 10 9 8 9 9 13 14 11 14 13 14 17 17 20 19 19 18
38 33 29 28 17 21 23 21 24 28 30 32 31 29 27 26 24 20 17 13 15 15 15 15 15 14 13 12 11 8 9 9 11 11 12 14 15 14 18 19 19 17 16
28 26 29 28 22 17 20 20 24 28 27 30 32 32 30 28 25 22 19 16 16 15 14 16 16 17 15 14 13 11 9 9 9 11 11 11 12 16 18 17 16 14 11
34 23 29 30 20 19 19 21 25 28 31 31 33 34 34 33 30 27 24 21 19 18 16 16 17 15 16 15 15 14 13 10 9 9 12 12 12 16 17 16 12 11 9
39 33 26 20 24 21 25 25 26 29 31 33 33 35 34 34 34 31 27 24 21 20 17 15 12 15 16 15 15 16 16 15 12 10 11 13 15 15 14 13 11 11 10
35 34 31 25 25 31 39 41 30 28 30 31 35 35 36 36 37 36 32 29 27 24 21 19 17 17 15 14 15 16 16 17 17 16 14 14 16 17 17 16 14 13 12
34 42 35 21 22 26 36 44 34 31 30 30 33 38 38 37 36 37 37 34 31 30 27 23 19 18 18 17 17 17 17 19 19 20 19 17 16 17 18 18 17 16 15
38 42 35 39 27 27 41 45 41 35 31 31 33 35 38 38 37 37 38 36 34 33 32 30 26 23 22 21 19 18 17 18 21 21 21 22 21 20 20 20 19 18 17
20 30 39 38 31 32 32 34 39 40 33 30 33 33 33 39 38 39 38 39 38 35 34 33 30 27 25 23 21 20 20 19 20 21 23 23 23 24 24 24 23 23 22
8 14 23 26 37 39 38 38 37 38 37 30 33 35 33 34 37 37 39 38 40 38 37 37 35 32 29 26 24 23 23 23 22 21 21 22 23 24 25 25 25 25 25
12 14 24 24 21 24 34 32 37 41 37 40 36 37 35 33 31 33 36 37 38 39 38 37 37 36 33 30 28 26 26 25 25 24 23 23 22 21 22 23 25 26 25
21 16 15 18 22 8 26 30 33 37 37 46 38 38 33 33 29 31 29 34 36 37 36 34 36 36 35 33 31 30 31 28 26 26 26 25 24 22 22 23 22 22 22
28 25 18 15 7 2 25 24 38 36 42 44 45 40 28 25 24 31 31 27 30 32 33 33 32 33 34 34 33 32 32 32 29 28 28 27 26 25 25 26 25 24 20
28 27 28 23 17 8 4 14 17 25 46 44 45 41 31 27 23 26 28 33 31 28 29 33 32 31 32 33 34 35 36 34 32 30 29 28 27 26 25 25 27 25 22
37 31 34 32 33 22 8 9 6 19 38 55 51 47 37 30 20 24 26 31 36 35 32 29 29 33 33 32 33 34 35 33 33 32 29 27 26 26 26 27 26 26 25
49 47 40 41 40 36 27 16 9 9 25 33 50 34 36 32 27 25 25 26 34 39 37 35 31 28 29 31 33 32 33 33 34 32 31 29 28 27 28 28 27 27 26
55 54 51 53 45 47 38 29 24 14 29 29 37 36 36 37 32 33 33 30 31 37 40 39 36 34 32 29 29 31 31 31 33 33 32 31 31 31 31 30 29 29 28
56 56 55 56 50 59 48 39 39 27 21 27 28 35 36 38 37 38 38 33 34 36 37 39 39 37 34 31 30 30 29 27 28 28 32 34 34 33 31 29 30 30 28
59 56 53 54 48 49 59 44 45 35 30 29 29 26 35 36 42 41 43 37 35 36 34 33 38 39 38 35 33 31 30 32 32 36 36 36 34 33 31 30 30 29 28

GFSMW_700_spd_063.txt.gz
Wind_Speed
25 30 27 22 20 17 11 9 8 11 14 15 11 15 16 14 10 10 7 7 5 5 6 5 5 5 5 12 13 15 12 14 14 15 15 13 12 11 12 13 13 15 17
33 36 32 28 25 23 14 9 8 11 14 14 13 14 16 15 10 10 7 7 6 4 4 6 6 8 9 8 11 9 13 11 9 12 11 5 10 13 14 14 15 16 18
34 39 32 26 24 26 23 11 9 11 15 18 17 18 20 18 15 11 9 6 5 7 5 5 6 7 7 11 10 11 9 9 12 9 10 12 11 14 16 15 16 20 22
34 37 30 22 26 24 24 15 10 12 14 19 20 20 17 14 14 13 9 7 6 7 6 4 5 7 6 9 14 12 13 11 9 14 14 14 13 13 15 16 19 23 22
20 22 24 23 17 25 24 18 18 15 15 19 21 20 19 15 16 15 14 11 8 7 8 5 2 3 6 6 10 11 9 9 13 13 14 13 12 13 17 20 22 25 23
29 27 27 21 26 19 23 22 24 18 18 22 23 20 20 19 17 17 15 12 10 9 7 7 5 4 6 6 6 9 10 12 16 15 15 14 11 13 17 20 22 24 23
26 34 32 23 27 23 20 22 22 20 21 23 25 22 20 21 22 22 18 14 13 10 9 8 6 5 5 5 6 6 7 12 14 15 17 15 14 13 17 20 22 22 21
23 28 31 22 22 21 16 17 21 20 22 23 26 23 22 21 21 22 19 16 14 12 11 11 9 7 7 6 6 7 7 12 12 14 19 17 14 15 17 19 20 20 18
33 18 26 25 22 23 17 17 16 18 21 24 27 26 23 23 21 19 20 18 15 18 14 13 13 11 9 7 7 7 7 11 9 12 17 12 14 16 18 19 19 18 17
34 25 30 23 20 20 17 17 16 17 19 23 27 28 26 24 23 22 21 18 13 19 17 16 16 15 12 10 9 9 8 8 8 11 14 14 14 16 18 19 18 16 14
30 32 26 30 25 18 21 20 19 18 21 24 25 29 29 27 26 25 23 20 17 17 16 17 17 16 15 13 12 12 11 10 10 10 11 13 15 17 20 20 17 15 14
24 34 31 32 32 32 25 24 23 22 21 20 24 27 29 30 30 28 25 24 21 19 17 16 18 19 16 16 16 15 13 13 12 12 12 12 13 16 20 19 17 14 13
25 35 34 42 35 31 29 29 26 25 24 21 24 27 29 31 32 31 29 27 25 24 23 21 20 17 18 17 17 18 17 16 15 14 13 14 15 16 18 18 17 16 14
16 31 35 41 33 31 31 28 30 31 32 30 25 28 30 30 31 32 32 31 29 28 27 25 23 21 19 18 17 19 19 19 20 19 18 17 17 18 19 19 19 18 17
21 28 33 39 37 35 36 32 31 39 41 39 34 28 27 27 29 32 33 35 34 32 30 29 27 24 23 22 22 21 21 21 22 23 23 22 21 21 22 22 22 22 21
14 27 33 37 39 37 37 38 31 31 38 38 35 30 29 27 28 31 33 35 37 37 36 34 32 30 27 25 23 23 23 23 23 24 25 25 27 26 25 25 24 25 25
3 10 22 38 37 33 43 30 26 28 33 35 33 30 31 30 29 29 33 36 38 39 39 38 37 35 32 29 27 26 27 25 26 25 26 27 28 28 28 29 29 29 28
12 10 10 18 32 37 43 37 28 25 29 32 29 31 31 31 30 28 32 34 37 39 40 40 40 39 37 34 31 29 30 29 28 28 27 28 28 28 29 29 30 30 29
21 21 17 14 10 13 29 37 34 35 36 37 37 35 33 31 28 28 32 31 35 36 38 39 41 40 38 37 35 33 34 33 31 30 31 30 30 28 28 29 29 28 26
27 29 32 25 13 10 10 14 24 24 31 40 41 38 37 33 31 26 26 32 32 31 33 35 36 37 37 37 36 37 36 36 34 32 32 32 32 30 30 30 30 29 24
34 33 32 33 27 16 11 14 15 21 25 32 32 36 35 33 32 27 26 29 36 32 31 30 32 33 32 34 36 37 39 38 36 35 34 32 31 31 31 32 33 30 27
42 40 42 39 34 31 21 19 20 25 23 34 36 38 40 39 36 32 28 28 36 37 34 31 28 32 33 32 33 35 38 37 38 36 34 33 31 32 33 34 34 33 32
52 46 47 47 49 35 33 29 23 19 13 21 28 36 37 40 38 32 32 33 34 38 37 34 31 30 30 31 32 33 34 36 38 36 34 33 33 33 34 36 35 34 34
54 54 53 52 56 55 55 37 32 25 21 16 16 24 22 34 41 40 37 35 31 36 40 37 35 34 32 30 29 29 31 33 34 35 35 34 35 36 37 36 36 36 34
52 55 57 55 54 51 60 57 44 39 34 26 21 29 26 27 33 40 42 41 34 35 37 37 34 36 35 34 32 30 29 28 27 28 32 35 37 37 38 37 35 34 34
46 50 57 59 55 57 52 61 58 50 42 35 27 27 33 34 39 41 40 38 33 34 34 28 30 32 35 35 35 36 37 36 35 36 36 37 38 38 36 36 35 34 35

GFSMW_700_spd_069.txt.gz
Wind_Speed
25 26 25 21 18 20 20 20 17 15 17 12 12 7 11 8 6 6 4 4 5 6 6 7 6 4 1 5 8 9 6 5 4 6 5 3 3 3 5 9 12 16 19
28 30 29 25 22 19 19 18 16 13 14 13 10 10 13 9 8 6 5 4 3 3 4 5 5 6 4 5 5 10 8 5 6 7 6 4 4 4 7 9 13 17 20
24 30 32 29 25 23 23 20 16 14 15 13 12 11 13 11 7 6 5 4 3 3 3 4 4 7 8 7 7 9 9 6 7 7 7 6 6 6 9 11 14 19 21
19 25 30 30 29 25 23 21 18 15 13 12 11 10 9 8 7 7 5 4 3 2 2 3 4 5 7 8 8 10 10 8 9 8 8 9 8 7 9 13 16 19 20
15 20 29 30 27 27 25 21 20 17 14 11 11 12 13 12 13 9 6 5 3 3 2 3 4 3 4 6 8 11 10 9 8 11 11 9 9 8 10 14 16 19 18
14 16 23 29 28 29 27 25 22 19 15 12 10 13 15 13 14 10 8 8 4 3 3 3 3 2 3 5 9 11 9 10 11 14 12 10 9 10 11 14 16 17 17
17 16 18 28 31 31 31 28 23 20 16 12 10 12 15 14 13 12 11 8 5 5 6 5 5 4 4 5 7 9 9 8 13 17 14 12 11 13 13 14 16 17 16
22 19 17 19 27 31 30 28 26 22 20 15 11 10 13 13 13 14 11 10 6 9 9 8 6 6 6 7 6 6 9 11 13 17 15 13 11 14 14 15 16 16 14
25 21 16 17 22 29 30 29 25 23 21 18 14 12 12 14 14 14 14 15 12 12 12 10 8 7 7 6 7 8 7 9 11 13 16 15 15 16 15 17 17 16 15
20 26 22 15 20 24 27 26 24 22 20 20 18 13 11 13 15 17 15 13 14 13 13 13 12 11 9 8 8 8 8 8 8 11 14 17 16 16 17 17 18 17 16
18 22 28 23 19 23 23 23 25 24 22 22 20 18 16 14 15 18 18 15 14 16 17 17 16 15 13 11 10 9 8 8 7 8 11 14 16 17 18 18 19 18 18
18 22 25 29 28 24 25 26 25 24 24 22 22 21 17 17 17 19 19 18 16 16 15 16 18 18 17 14 12 11 10 9 9 9 9 12 15 17 19 20 20 20 20
12 21 24 26 28 29 27 29 31 28 28 27 26 24 22 21 19 19 20 21 20 19 18 17 17 19 20 18 16 15 14 13 12 11 10 11 13 14 18 20 21 22 22
6 14 21 28 28 29 26 27 30 31 31 32 32 30 26 23 21 20 21 22 24 23 22 21 18 19 20 21 20 19 17 17 16 15 14 14 13 14 16 19 22 23 23
3 6 10 20 24 31 30 28 31 31 32 33 35 34 32 30 29 28 26 24 25 27 26 25 25 23 23 22 21 21 21 21 21 20 19 17 17 17 18 19 19 22 23
6 8 9 14 15 19 28 34 33 31 32 31 32 33 33 33 33 34 33 31 30 29 30 30 29 29 28 25 22 22 22 23 24 23 23 23 22 21 21 21 22 23 24
6 11 10 16 20 20 18 25 28 34 32 30 29 28 31 32 35 36 37 37 35 33 32 31 32 32 31 29 26 25 27 27 27 26 26 27 26 26 26 26 26 25 26
10 10 11 13 13 17 21 25 26 29 34 43 32 28 30 34 36 41 39 37 36 36 34 33 33 33 33 32 31 30 31 32 31 31 30 29 29 29 29 29 30 30 30
21 18 15 12 12 13 15 21 28 27 29 37 41 32 27 31 35 46 40 36 37 36 35 35 35 35 34 33 33 34 36 37 35 34 33 33 32 30 29 32 32 32 31
30 29 26 23 19 16 14 18 22 25 29 39 38 25 30 26 32 42 44 38 38 36 36 36 36 35 34 34 34 36 38 40 38 37 37 36 34 32 32 34 34 35 31
38 38 36 34 32 28 23 17 17 19 23 28 31 37 36 29 32 37 41 41 40 39 38 37 36 35 34 33 33 35 38 39 39 39 39 38 36 35 34 33 36 35 32
40 43 45 43 43 39 35 31 24 20 22 22 25 29 33 32 30 34 36 40 40 40 41 40 38 34 31 29 28 30 34 34 38 39 38 37 37 37 38 37 36 35 36
42 45 50 51 47 49 47 41 37 33 28 25 18 20 23 20 24 28 32 41 40 40 40 41 40 38 34 29 28 27 29 32 34 35 36 35 35 37 40 41 39 39 41
45 50 51 52 55 51 54 53 48 43 39 35 29 24 18 15 18 19 25 33 37 41 40 42 41 40 37 35 33 30 29 31 33 31 32 32 34 35 37 40 42 43 43
37 43 50 53 53 56 55 57 57 54 48 44 43 38 31 25 19 18 19 23 24 33 37 40 40 37 36 33 30 31 31 31 28 28 31 35 36 35 34 35 38 39 40
34 38 43 49 52 53 58 57 58 60 59 53 47 49 43 36 28 26 24 23 25 24 29 36 41 38 36 33 32 31 32 33 34 35 32 30 30 32 33 33 34 35 37

GFSMW_700_spd_075.txt.gz
Wind_Speed
25 23 22 21 19 16 16 17 18 18 16 14 12 13 11 10 7 4 3 2 4 3 5 7 5 11 11 10 9 12 9 5 11 9 7 7 9 8 6 5 8 9 16
26 26 25 21 21 16 16 19 19 19 18 16 13 14 6 3 9 3 4 3 3 3 3 5 5 10 6 9 9 12 10 1 11 11 7 0 10 4 4 7 11 15 15
29 28 27 24 20 20 15 20 21 20 19 19 15 13 17 14 4 7 4 3 3 2 1 4 5 7 7 4 10 11 14 7 8 15 17 10 7 3 4 9 12 14 14
27 28 28 24 19 20 15 21 22 21 21 18 17 12 14 8 6 6 4 2 3 3 2 2 3 6 10 10 7 13 14 9 1 8 9 17 17 17 5 7 12 13 11
24 29 27 25 27 19 19 22 22 22 22 19 16 15 14 10 7 9 8 2 2 3 2 2 2 3 4 10 7 12 12 16 12 4 4 6 19 16 13 3 8 10 9
21 21 27 28 26 20 20 24 23 22 22 19 17 14 16 17 12 14 7 6 2 2 3 3 0 2 9 7 7 9 11 15 16 14 12 9 11 13 6 6 8 5 8
24 22 29 23 24 25 21 24 25 24 21 19 17 15 15 16 18 15 11 4 1 2 3 1 1 1 1 3 5 9 14 11 11 12 13 14 15 19 17 11 8 4 6
20 20 24 26 23 28 24 23 26 25 23 20 17 15 16 16 15 14 13 9 6 7 3 3 2 1 2 2 3 7 11 13 13 13 17 14 4 12 21 16 12 4 3
26 17 21 24 26 32 26 26 26 26 24 22 19 17 15 15 15 13 14 16 12 16 5 5 4 3 2 1 3 3 7 11 10 13 15 14 9 8 9 19 22 18 6
33 29 30 25 22 26 30 26 27 25 23 22 20 18 16 15 15 15 14 15 13 14 17 8 6 4 3 2 3 4 6 6 7 10 14 15 15 16 16 10 11 24 21
29 32 32 35 29 31 23 27 26 28 26 25 23 21 19 16 15 15 16 16 16 15 15 14 11 8 6 7 5 5 4 6 7 8 13 16 16 16 12 12 14 15 18
25 27 27 25 32 30 31 42 25 25 29 28 27 24 22 21 19 17 16 17 17 17 16 14 13 11 10 10 9 7 7 5 5 7 8 12 16 16 17 19 21 22 23
24 24 26 25 23 27 34 34 31 27 23 28 29 29 28 26 21 19 18 18 19 18 17 18 16 15 13 13 11 11 11 9 8 7 8 9 12 15 18 21 22 23 24
18 23 33 24 18 20 31 36 37 37 37 33 29 30 29 27 24 22 23 22 21 21 20 19 18 17 16 16 15 15 15 14 12 11 11 11 11 11 15 17 20 22 25
12 15 24 26 22 27 31 34 38 38 35 35 30 30 37 33 29 29 28 26 26 24 23 23 23 21 20 19 19 19 18 18 17 16 15 14 13 12 13 15 16 19 22
10 10 10 15 21 21 24 33 31 30 32 36 37 38 36 37 35 29 28 31 30 28 27 27 27 26 25 22 21 20 20 21 22 20 19 18 18 16 16 16 17 17 18
12 13 11 10 12 14 18 21 29 34 33 35 32 34 35 38 34 33 32 31 31 31 30 30 30 31 29 27 26 24 24 24 23 22 21 21 21 20 20 20 20 21 20
15 16 17 13 15 16 16 17 19 24 32 32 35 37 37 42 39 37 36 35 35 35 34 34 33 34 33 31 31 30 29 30 29 28 26 24 23 24 23 22 24 23 24
19 17 16 14 17 16 16 20 18 20 21 26 27 33 39 40 41 40 38 37 37 36 33 33 34 35 34 34 33 34 34 34 35 33 32 30 28 26 27 27 26 26 25
24 24 23 21 21 20 20 20 19 21 21 20 24 25 32 40 38 40 38 37 38 38 38 37 39 41 38 34 34 35 37 39 37 37 36 34 33 31 30 31 31 31 27
28 27 28 29 30 29 27 25 25 25 24 24 24 23 25 28 38 39 39 36 37 33 35 38 41 42 43 38 36 36 38 39 39 39 38 36 35 35 35 35 35 34 33
32 31 31 31 33 34 36 37 35 33 31 29 29 31 31 32 31 41 45 46 43 37 38 35 36 36 42 42 38 38 38 38 40 40 39 38 38 38 37 38 38 37 37
29 31 33 33 33 34 36 39 40 42 41 38 35 33 32 34 31 35 41 43 49 48 39 35 36 35 38 42 41 40 38 39 42 40 40 40 41 41 39 38 37 37 41
24 26 27 31 31 32 33 35 39 43 44 47 46 42 40 38 36 37 37 37 45 49 44 48 45 41 39 41 43 43 41 40 42 41 41 39 39 40 40 42 39 38 40
22 24 26 28 30 33 34 34 36 39 44 47 48 51 51 46 43 40 40 41 40 49 58 56 52 47 42 40 43 45 41 43 42 41 40 38 38 37 37 39 40 36 36
19 21 24 26 29 30 33 35 35 37 41 43 48 52 53 57 55 51 47 46 43 41 43 42 43 41 42 42 42 43 47 42 42 40 35 40 40 41 39 37 37 36 34